Simultaneous Nadir Overpasses (SNOs) Predictions

Prediction of SNOs between NOAA-20 and METOP-B Satellite Orbit:

Table of predicted SNOs for the next 14.0 days since TLE Epoch: 4/6/2024
Index Date (NOAA-20) Time (NOAA-20) Lat,Lon (NOAA-20) SZA (NOAA-20 ) Date (METOP-B) Time (METOP-B) Lat,Lon (METOP-B) SZA (METOP-B ) Distance(km) Time Diff (sec)
1 04/10/2024 09:00:10 -73.96,-145.66 114.01 04/10/2024 09:01:16 -73.90,-142.75 114.22 89.81 66
2 04/10/2024 09:50:51 73.71, 22.24 65.70 04/10/2024 09:52:00 73.70, 24.11 65.58 58.13 69
3 04/10/2024 10:41:34 -73.65,-170.29 114.39 04/10/2024 10:42:44 -73.58,-168.84 114.54 46.31 70
4 04/10/2024 11:32:15 73.39, -2.41 65.33 04/10/2024 11:33:28 73.38, -1.97 65.27 14.21 73
5 04/10/2024 12:22:58 -73.33, 165.04 114.76 04/10/2024 12:24:11 -73.31, 165.21 114.81 5.98 73
6 04/10/2024 13:13:43 73.28, -27.53 65.17 04/10/2024 13:14:52 73.25, -27.58 65.14 3.30 69
7 04/10/2024 14:04:27 -73.27, 139.81 114.86 04/10/2024 14:05:33 -73.29, 139.82 114.85 2.24 66
8 04/10/2024 14:55:13 73.26, -52.87 65.13 04/10/2024 14:56:13 73.28, -52.86 65.13 1.94 60
9 04/10/2024 15:45:57 -73.25, 114.47 114.90 04/10/2024 15:46:55 -73.27, 114.44 114.90 1.69 58
10 04/10/2024 16:36:43 73.25, -78.22 65.09 04/10/2024 16:37:35 73.26, -78.25 65.09 1.35 52
11 04/10/2024 17:27:27 -73.24, 89.12 114.94 04/10/2024 17:28:17 -73.24, 89.05 114.94 2.47 50
12 04/10/2024 18:18:13 73.24,-103.56 65.05 04/10/2024 18:18:57 73.24,-103.63 65.04 2.33 44
13 04/10/2024 19:08:58 -73.27, 63.67 114.93 04/10/2024 19:09:38 -73.27, 63.77 114.94 3.25 40
14 04/10/2024 19:59:44 73.27,-129.02 65.06 04/10/2024 20:00:18 73.27,-128.91 65.04 3.41 34
15 04/10/2024 20:50:28 -73.26, 38.32 114.97 04/10/2024 20:51:00 -73.25, 38.38 114.99 2.12 32
16 04/10/2024 21:41:14 73.26,-154.36 65.02 04/10/2024 21:41:40 73.24,-154.30 65.00 2.45 26
17 04/10/2024 22:31:58 -73.25, 12.98 115.01 04/10/2024 22:32:22 -73.23, 12.99 115.03 1.98 24
18 04/10/2024 23:22:44 73.24,-179.71 64.98 04/10/2024 23:23:02 73.22,-179.69 64.95 2.44 18
19 04/11/2024 00:13:28 -73.23, -12.36 115.05 04/11/2024 00:13:44 -73.21, -12.40 115.08 2.96 16
20 04/11/2024 01:04:14 73.23, 154.95 64.94 04/11/2024 01:04:24 73.20, 154.92 64.91 3.38 10
21 04/11/2024 01:54:58 -73.22, -37.71 115.10 04/11/2024 01:55:05 -73.23, -37.68 115.08 2.26 7
22 04/11/2024 02:45:44 73.21, 129.61 64.89 04/11/2024 02:45:45 73.23, 129.64 64.90 1.91 1
23 04/11/2024 03:36:28 -73.20, -63.05 115.14 04/11/2024 03:36:27 -73.21, -63.06 115.13 1.19 1
24 04/11/2024 04:27:14 73.20, 104.26 64.85 04/11/2024 04:27:07 73.20, 104.25 64.86 0.69 7
25 04/11/2024 05:17:58 -73.19, -88.40 115.18 04/11/2024 05:17:49 -73.19, -88.45 115.17 1.77 9
26 04/11/2024 06:08:44 73.18, 78.92 64.81 04/11/2024 06:08:29 73.18, 78.87 64.81 1.68 15
27 04/11/2024 06:59:28 -73.17,-113.74 115.22 04/11/2024 06:59:11 -73.17,-113.84 115.22 3.20 17
28 04/11/2024 07:50:14 73.17, 53.57 64.77 04/11/2024 07:49:51 73.16, 53.48 64.77 3.26 23
29 04/11/2024 08:40:59 -73.21,-139.20 115.21 04/11/2024 08:40:32 -73.20,-139.12 115.22 2.82 27
30 04/11/2024 09:31:45 73.21, 28.12 64.78 04/11/2024 09:31:12 73.19, 28.20 64.77 3.21 33
31 04/11/2024 10:22:29 -73.19,-164.54 115.25 04/11/2024 10:21:54 -73.17,-164.51 115.26 2.44 35
32 04/11/2024 11:13:15 73.19, 2.77 64.74 04/11/2024 11:12:34 73.17, 2.81 64.72 3.02 41
33 04/11/2024 12:03:59 -73.18, 170.11 115.29 04/11/2024 12:03:16 -73.15, 170.10 115.31 3.06 43
34 04/11/2024 12:54:45 73.18, -22.57 64.70 04/11/2024 12:53:56 73.14, -22.58 64.68 3.66 49
35 04/11/2024 13:45:29 -73.16, 144.77 115.33 04/11/2024 13:44:37 -73.18, 144.83 115.31 2.46 52
36 04/11/2024 14:36:15 73.16, -47.92 64.66 04/11/2024 14:35:17 73.17, -47.86 64.67 2.16 58
37 04/11/2024 15:26:59 -73.15, 119.43 115.38 04/11/2024 15:25:59 -73.16, 119.44 115.36 0.94 60
38 04/11/2024 16:17:45 73.15, -73.26 64.61 04/11/2024 16:16:39 73.15, -73.25 64.63 0.51 66
39 04/11/2024 17:08:29 -73.14, 94.08 115.42 04/11/2024 17:07:21 -73.14, 94.05 115.40 1.04 68
40 04/11/2024 17:59:15 73.13, -98.61 64.57 04/11/2024 17:58:01 73.13, -98.64 64.58 1.15 74
41 04/11/2024 18:49:58 -73.07, 68.85 115.51 04/11/2024 18:48:44 -73.06, 68.55 115.49 9.50 74
42 04/11/2024 19:40:39 72.82,-123.30 64.20 04/11/2024 19:39:28 72.85,-124.56 64.31 41.35 71
43 04/11/2024 20:31:22 -72.75, 44.14 115.89 04/11/2024 20:30:11 -72.79, 42.64 115.76 49.63 71
44 04/11/2024 21:22:02 72.50,-148.03 63.83 04/11/2024 21:20:55 72.52,-150.57 64.00 84.94 67
45 04/11/2024 22:12:45 -72.43, 19.41 116.26 04/11/2024 22:11:39 -72.41, 16.53 116.11 96.59 66



Historial Predications of SNOs between NOAA-20 and METOP-B
